Location: Mount Kobau Star Party
(49.1167°N, 119.7333°W)
Time: 07:54:51
(UTC-08:00)

ISS - Visible Passes

Search period start: 24 February 2024 00:00
Search period end: 05 March 2024 00:00
Orbit: 415 x 422 km, 51.6° (Epoch: 24 February)

Date Brightness Start Highest point End Pass type
(mag) Time Alt. Az. Time Alt. Az. Time Alt. Az.
24 Feb -1.1 04:03:43 21° E 04:03:43 21° E 04:05:01 10° ENE visible
24 Feb -3.5 05:36:40 23° W 05:38:33 57° N 05:41:54 10° ENE visible
25 Feb -3.7 04:51:08 66° NNW 04:51:08 66° NNW 04:54:32 10° ENE visible
26 Feb -1.5 04:05:57 26° ENE 04:05:57 26° ENE 04:07:34 10° ENE visible
26 Feb -3.3 05:38:57 19° WNW 05:41:13 54° N 05:44:35 10° E visible
27 Feb -3.4 04:54:08 49° NW 04:54:35 54° N 04:57:58 10° ENE visible
28 Feb -1.9 04:09:42 31° ENE 04:09:42 31° ENE 04:11:45 10° ENE visible
28 Feb -3.5 05:42:45 15° WNW 05:45:30 67° NNE 05:48:57 10° E visible
29 Feb -0.3 03:25:39 12° ENE 03:25:39 12° ENE 03:25:56 10° ENE visible
29 Feb -3.3 04:58:43 40° NW 04:59:41 59° N 05:03:07 10° E visible
01 Mar -2.5 04:15:05 42° NE 04:15:05 42° NE 04:17:41 10° E visible
01 Mar -3.7 05:48:11 12° WNW 05:51:21 74° SSW 05:54:50 10° ESE visible
02 Mar -0.6 03:31:51 16° ENE 03:31:51 16° ENE 03:32:37 10° ENE visible
02 Mar -3.7 05:05:00 34° WNW 05:06:23 87° NNE 05:09:54 10° ESE visible
03 Mar -3.2 04:22:12 62° ENE 04:22:12 62° ENE 04:25:17 10° E visible
03 Mar -2.7 05:55:28 10° W 05:58:41 34° SSW 06:01:53 10° SSE visible
04 Mar -1.0 03:39:51 20° E 03:39:51 20° E 03:41:03 10° E visible
04 Mar -3.3 05:13:03 27° W 05:14:35 47° SSW 05:17:59 10° SE visible
